Regional Weather Roundup
Issued by NWS Bismarck, ND

Home | Current Version | Previous Version | Text Only | Print | Product List | Glossary On
Versions: 1 2 3 4 5 6 7 8 9 10 11 12 13 14 15 16 17 18 19 20 21 22 23 24 25 26 27 28 29 30 31 32 33 34 35 36 37 38 39 40 41 42 43 44 45 46 47 48 49 50
000
ASUS43 KBIS 011810
RWRBIS

NWR BROADCAST TEXT
NATIONAL WEATHER SERVICE BISMARCK ND
100 PM CDT SAT AUG 01 2015

NOTE: "FAIR" INDICATES FEW OR NO CLOUDS BELOW 12,000 FEET WITH NO
SIGNIFICANT WEATHER AND/OR OBSTRUCTIONS TO VISIBILITY.


CITY           SKY/WX    TMP DP  RH WIND       PRES   REMARKS
WILLISTON      SUNNY     86  56  35 S7        29.88F
MINOT          SUNNY     85  50  29 SE7       29.85F
MINOT AFB      SUNNY     86  51  29 VRB5      29.84
BISMARCK       SUNNY     84  57  39 CALM      29.86F
DICKINSON      SUNNY     86  51  29 NW6       29.91F
GARRISON         N/A     80  60  50 SE9       29.87F
HETTINGER ARPT SUNNY     90  43  19 NW14G28   29.95S
JAMESTOWN      SUNNY     81  60  48 SE13      29.86F
CROSBY         FAIR      86  55  35 SW12      29.86F
HARVEY         FAIR      84  54  34 SE7       29.86F
HAZEN            N/A     82  54  36 NW6       29.88F
LINTON         FAIR      86  66  51 W9        29.85F
OAKES            N/A     86  63  45 SE12G18   29.85F
STANLEY        FAIR      81  54  39 VRB5      29.90F
$$

CITY           SKY/WX    TMP DP  RH WIND       PRES   REMARKS
GRAND FORKS    MOSUNNY   82  53  36 SW9       29.84F
GRAND FORKS AF SUNNY     82  56  42 S9        29.85F
DEVILS LAKE    SUNNY     81  55  41 SW8       29.85F
FARGO          MOSUNNY   83  54  36 S10       29.87F
CAVALIER       FAIR      79  55  44 SW6       29.84F
GRAFTON        FAIR      81  55  41 VRB7      29.86F
GWINNER        FAIR      82  64  54 SE13      29.87F
LANGDON        FAIR      82  54  36 SW6G12    29.88F
ROLLA            N/A     77  59  53 W7        29.88F
WALHALLA       FAIR      81  55  41 MISG      29.84F
$$

CITY           SKY/WX    TMP DP  RH WIND       PRES   REMARKS
ABERDEEN       MOSUNNY   84  69  60 S16G24    29.87F
MOBRIDGE       SUNNY     90  64  42 W8G16     29.83F HX  91
BUFFALO          N/A     92  34  13 N17G23    29.91F
RAPID CITY     SUNNY     85  58  39 S3        30.02F
GLASGOW        SUNNY     89  46  22 SW8       29.86F
SIDNEY         SUNNY    N/A N/A N/A SE8       29.87F
WOLF POINT     SUNNY     93  50  23 SW7       29.84F HX  90
GLENDIVE       SUNNY     86  52  30 S9        29.93F
MILES CITY     SUNNY     92  42  17 SW7G16    29.94F
BAKER          SUNNY     91  40  16 NW9       29.98F
$$

CITY           SKY/WX    TMP DP  RH WIND       PRES   REMARKS
BILLINGS       MOSUNNY   86  42  21 SW12      30.04F
GREAT FALLS    SUNNY     90  32  12 MISG      30.01F
REGINA         PTSUNNY   84  57  39 VRB3      29.84F
ESTEVAN        SUNNY     86  55  35 SW13      29.85F
$$




USA.gov is the U.S. government's official web portal to all federal, state and local government web resources and services.